When you browse on this site, cookies collect data to enhance your experience and personalize the content and advertising you see.
Visit our Privacy Policy to learn more. By continuing to use the site, you agree to this use of cookies and data.
  • In Sweden
  • List of Countries
  • For 7 days
  • Water Temperature
  • Satellite Maps
  • Weather Map
  • Weather Widgets
  • user-avatar
    Login

    Hourly Weather Shalday

    Today, 17 June, Monday

    Time Temperature Precipitation Wind Pressure Humidity
    00:00 +8°C° 0 mm 4 mps 745 mmHg 72%
    01:00 +8°C° 0 mm 4 mps 745 mmHg 72%
    02:00 +8°C° 0 mm 4 mps 744 mmHg 71%
    03:00 +8°C° 0 mm 4 mps 744 mmHg 70%
    04:00 +10°C° 0 mm 4 mps 744 mmHg 69%
    05:00 +10°C° 0 mm 4 mps 745 mmHg 70%
    06:00 +13°C° 0 mm 5 mps 745 mmHg 62%
    07:00 +15°C° 0 mm 5 mps 745 mmHg 55%
    08:00 +17°C° 0 mm 6 mps 745 mmHg 48%
    09:00 +19°C° 0 mm 6 mps 745 mmHg 45%
    10:00 +20°C° 0 mm 6 mps 745 mmHg 41%
    11:00 +21°C° 0 mm 6 mps 744 mmHg 38%
    12:00 +21°C° 0 mm 5 mps 744 mmHg 37%
    13:00 +22°C° 0 mm 5 mps 743 mmHg 36%
    14:00 +22°C° 0 mm 5 mps 743 mmHg 35%
    15:00 +22°C° 0 mm 4 mps 743 mmHg 35%
    16:00 +22°C° 0 mm 4 mps 742 mmHg 36%
    17:00 +22°C° 0 mm 3 mps 742 mmHg 36%
    18:00 +21°C° 0 mm 3 mps 741 mmHg 41%
    19:00 +19°C° 0 mm 3 mps 741 mmHg 45%
    20:00 +18°C° 0 mm 3 mps 741 mmHg 50%
    21:00 +18°C° 0 mm 4 mps 740 mmHg 51%
    22:00 +18°C° 0 mm 4 mps 740 mmHg 51%
    23:00 +16°C° 0 mm 5 mps 739 mmHg 52%

    Tomorrow, 18 June, Tuesday

    Time Temperature Precipitation Wind Pressure Humidity
    00:00 +17°C° 0 mm 4 mps 739 mmHg 53%
    01:00 +17°C° 0 mm 4 mps 738 mmHg 54%
    02:00 +17°C° 0 mm 4 mps 738 mmHg 55%
    03:00 +17°C° 0 mm 4 mps 737 mmHg 56%
    04:00 +17°C° 0 mm 4 mps 737 mmHg 57%
    05:00 +17°C° 0 mm 3 mps 737 mmHg 58%
    06:00 +17°C° 0 mm 5 mps 737 mmHg 56%
    07:00 +19°C° 0 mm 6 mps 737 mmHg 53%
    08:00 +20°C° 0 mm 8 mps 736 mmHg 51%
    09:00 +20°C° 0.1 mm 7 mps 736 mmHg 52%
    10:00 +20°C° 0.1 mm 7 mps 736 mmHg 54%
    11:00 +21°C° 0.1 mm 6 mps 736 mmHg 55%
    12:00 +21°C° 0.3 mm 6 mps 736 mmHg 52%
    13:00 +22°C° 0.3 mm 6 mps 736 mmHg 49%
    14:00 +23°C° 0.3 mm 5 mps 736 mmHg 45%
    15:00 +23°C° 0.1 mm 6 mps 737 mmHg 45%
    16:00 +23°C° 0.1 mm 6 mps 737 mmHg 45%
    17:00 +22°C° 0.1 mm 6 mps 737 mmHg 44%
    18:00 +21°C° 0 mm 6 mps 738 mmHg 49%
    19:00 +19°C° 0 mm 5 mps 738 mmHg 54%
    20:00 +16°C° 0 mm 5 mps 739 mmHg 59%
    21:00 +15°C° 0 mm 4 mps 739 mmHg 62%
    22:00 +14°C° 0 mm 3 mps 740 mmHg 65%
    23:00 +13°C° 0 mm 3 mps 740 mmHg 68%

    Day after tomorrow, 19 June, Wednesday

    Time Temperature Precipitation Wind Pressure Humidity
    00:00 +13°C° 0 mm 3 mps 740 mmHg 68%
    01:00 +12°C° 0 mm 3 mps 741 mmHg 68%
    02:00 +12°C° 0 mm 3 mps 741 mmHg 68%
    03:00 +13°C° 0 mm 2 mps 741 mmHg 65%
    04:00 +13°C° 0 mm 2 mps 742 mmHg 63%
    05:00 +14°C° 0 mm 2 mps 742 mmHg 61%
    06:00 +16°C° 0 mm 3 mps 742 mmHg 54%
    07:00 +18°C° 0 mm 3 mps 743 mmHg 48%
    08:00 +20°C° 0 mm 3 mps 743 mmHg 41%
    09:00 +20°C° 0 mm 3 mps 743 mmHg 40%
    10:00 +21°C° 0 mm 4 mps 743 mmHg 39%
    11:00 +21°C° 0 mm 4 mps 743 mmHg 38%
    12:00 +21°C° 0 mm 3 mps 743 mmHg 38%
    13:00 +22°C° 0 mm 3 mps 743 mmHg 37%
    14:00 +22°C° 0 mm 3 mps 743 mmHg 37%
    15:00 +22°C° 0 mm 3 mps 743 mmHg 37%
    16:00 +24°C° 0 mm 3 mps 743 mmHg 36%
    17:00 +24°C° 0 mm 3 mps 743 mmHg 36%
    18:00 +21°C° 0 mm 3 mps 743 mmHg 41%
    19:00 +20°C° 0 mm 2 mps 743 mmHg 46%
    20:00 +20°C° 0 mm 1 mps 743 mmHg 52%
    21:00 +19°C° 0 mm 1 mps 743 mmHg 53%
    22:00 +18°C° 0 mm 1 mps 743 mmHg 55%
    23:00 +18°C° 0 mm 1 mps 744 mmHg 57%

    20 June, Thursday

    Time Temperature Precipitation Wind Pressure Humidity
    00:00 +16°C° 0 mm 1 mps 744 mmHg 58%
    01:00 +16°C° 0 mm 1 mps 744 mmHg 59%
    02:00 +15°C° 0 mm 1 mps 744 mmHg 60%
    03:00 +16°C° 0 mm 1 mps 744 mmHg 60%
    04:00 +16°C° 0 mm 1 mps 744 mmHg 59%
    05:00 +18°C° 0 mm 1 mps 745 mmHg 59%
    06:00 +20°C° 0 mm 1 mps 745 mmHg 52%
    07:00 +21°C° 0 mm 1 mps 745 mmHg 46%
    08:00 +23°C° 0 mm 2 mps 746 mmHg 39%
    09:00 +24°C° 0 mm 2 mps 746 mmHg 37%
    10:00 +25°C° 0 mm 2 mps 746 mmHg 35%
    11:00 +25°C° 0 mm 3 mps 746 mmHg 32%
    12:00 +25°C° 0 mm 3 mps 746 mmHg 34%
    13:00 +25°C° 0 mm 3 mps 746 mmHg 36%
    14:00 +25°C° 0 mm 3 mps 746 mmHg 37%
    15:00 +25°C° 0 mm 3 mps 746 mmHg 38%
    16:00 +25°C° 0 mm 3 mps 746 mmHg 38%
    17:00 +25°C° 0 mm 3 mps 746 mmHg 39%
    18:00 +24°C° 0 mm 3 mps 746 mmHg 44%
    19:00 +21°C° 0 mm 3 mps 746 mmHg 49%
    20:00 +20°C° 0 mm 2 mps 746 mmHg 54%
    21:00 +20°C° 0 mm 2 mps 746 mmHg 55%
    22:00 +19°C° 0 mm 2 mps 746 mmHg 57%
    23:00 +19°C° 0 mm 1 mps 747 mmHg 58%

    21 June, Friday

    Time Temperature Precipitation Wind Pressure Humidity
    00:00 +18°C° 0 mm 1 mps 746 mmHg 62%
    01:00 +18°C° 0 mm 1 mps 746 mmHg 66%
    02:00 +16°C° 0 mm 1 mps 746 mmHg 69%
    03:00 +16°C° 0 mm 1 mps 746 mmHg 69%
    04:00 +18°C° 0 mm 1 mps 746 mmHg 68%
    05:00 +16°C° 0 mm 0 mps 746 mmHg 68%
    06:00 +20°C° 0 mm 1 mps 746 mmHg 59%
    07:00 +22°C° 0 mm 1 mps 747 mmHg 51%
    08:00 +23°C° 0 mm 1 mps 747 mmHg 42%
    09:00 +24°C° 0 mm 1 mps 747 mmHg 38%
    10:00 +25°C° 0 mm 1 mps 746 mmHg 35%
    11:00 +26°C° 0 mm 1 mps 746 mmHg 31%
    12:00 +26°C° 0 mm 2 mps 746 mmHg 30%
    13:00 +27°C° 0 mm 2 mps 746 mmHg 29%
    14:00 +27°C° 0 mm 2 mps 745 mmHg 27%
    15:00 +27°C° 0 mm 2 mps 745 mmHg 27%
    16:00 +27°C° 0 mm 2 mps 745 mmHg 27%
    17:00 +27°C° 0 mm 2 mps 745 mmHg 27%
    18:00 +26°C° 0 mm 2 mps 744 mmHg 33%
    19:00 +24°C° 0 mm 2 mps 744 mmHg 38%
    20:00 +21°C° 0 mm 2 mps 744 mmHg 44%
    21:00 +21°C° 0 mm 2 mps 744 mmHg 45%
    22:00 +21°C° 0 mm 1 mps 744 mmHg 47%
    23:00 +20°C° 0 mm 1 mps 744 mmHg 48%

    22 June, Saturday

    Time Temperature Precipitation Wind Pressure Humidity
    00:00 +19°C° 0 mm 2 mps 743 mmHg 50%
    01:00 +18°C° 0 mm 2 mps 743 mmHg 52%
    02:00 +18°C° 0 mm 2 mps 743 mmHg 54%
    03:00 +18°C° 0 mm 2 mps 743 mmHg 55%
    04:00 +18°C° 0 mm 2 mps 742 mmHg 57%
    05:00 +19°C° 0 mm 2 mps 742 mmHg 58%
    06:00 +21°C° 0 mm 2 mps 743 mmHg 51%
    07:00 +24°C° 0 mm 3 mps 743 mmHg 43%
    08:00 +26°C° 0 mm 3 mps 743 mmHg 36%
    09:00 +26°C° 0 mm 4 mps 743 mmHg 37%
    10:00 +26°C° 0 mm 4 mps 742 mmHg 37%
    11:00 +26°C° 0 mm 5 mps 742 mmHg 38%
    12:00 +25°C° 0 mm 5 mps 742 mmHg 43%
    13:00 +23°C° 0 mm 5 mps 742 mmHg 47%
    14:00 +23°C° 0 mm 5 mps 742 mmHg 51%
    15:00 +23°C° 0 mm 5 mps 742 mmHg 50%
    16:00 +23°C° 0 mm 5 mps 742 mmHg 48%
    17:00 +23°C° 0 mm 4 mps 742 mmHg 47%
    18:00 +22°C° 0.1 mm 4 mps 742 mmHg 52%
    19:00 +20°C° 0.1 mm 4 mps 743 mmHg 57%
    20:00 +19°C° 0.1 mm 4 mps 743 mmHg 62%
    21:00 +18°C° 0.2 mm 4 mps 743 mmHg 67%
    22:00 +17°C° 0.2 mm 4 mps 744 mmHg 72%
    23:00 +15°C° 0.2 mm 4 mps 744 mmHg 76%
    Show more